Location: *
(46.3500°N, 10.9000°E)
Time: 00:51:44
(UTC+00:00)

Vanguard 2 - Pass Details

Date: 27 April 2021
Orbit: 552 x 2938 km, 32.9° (Epoch: 12 May)

Event Time Altitude Azimuth Distance (km) Brightness Sun altitude
Rises 14:20:27 0° 272° (W) 6,554 13.0 39.5°
Reaches altitude 10° 14:25:53 10° 263° (W) 5,274 12.9 38.6°
Maximum altitude 14:37:31 30° 212° (SSW) 3,115 11.8 36.7°
Drops below altitude 10° 14:45:40 10° 156° (SSE) 3,626 11.0 35.4°
Sets 14:48:38 0° 145° (SE) 4,285 11.2 34.9°
